H1 CPF 2 NER 2022 5 29 9 149 01 glonass142 H2 2001801 9142 45358 2022 5 29 0 0 0 2022 6 1 23 45 0 900 1 1 0 0 0 1 H9 10 0 59728 0.00000 0 15141690.975 -13028419.881 -15846995.873 10 0 59728 900.00000 0 14138124.470 -11188053.581 -18029534.190 10 0 59728 1800.00000 0 13181620.870 -9049144.898 -19861458.358 10 0 59728 2700.00000 0 12323184.346 -6653687.340 -21307161.070 10 0 59728 3600.00000 0 11606151.143 -4053764.683 -22338555.932 10 0 59728 4500.00000 0 11064331.118 -1309627.172 -22935622.144 10 0 59728 5400.00000 0 10720569.672 1512572.160 -23086791.273 10 0 59728 6300.00000 0 10585790.389 4343287.298 -22789168.960 10 0 59728 7200.00000 0 10658558.223 7112231.089 -22048587.629 10 0 59728 8100.00000 0 10925181.150 9751059.383 -20879489.516 10 0 59728 9000.00000 0 11360345.461 12195976.435 -19304642.484 10 0 59728 9900.00000 0 11928257.475 14390153.798 -17354694.313 10 0 59728 10800.00000 0 12584243.069 16285862.855 -15067574.151 10 0 59728 11700.00000 0 13276737.240 17846233.071 -12487752.747 10 0 59728 12600.00000 0 13949579.429 19046563.615 -9665375.880 10 0 59728 13500.00000 0 14544517.443 19875134.743 -6655287.829 10 0 59728 14400.00000 0 15003814.007 20333486.247 -3515963.917 10 0 59728 15300.00000 0 15272845.628 20436152.552 -308373.145 10 0 59728 16200.00000 0 15302583.734 20209866.893 2905206.857 10 0 59728 17100.00000 0 15051853.067 19692269.186 6062399.272 10 0 59728 18000.00000 0 14489271.712 18930173.016 9101938.171 10 0 59728 18900.00000 0 13594790.594 17977465.529 11964855.602 10 0 59728 19800.00000 0 12360767.125 16892729.253 14595622.715 10 0 59728 20700.00000 0 10792527.356 15736686.307 16943222.804 10 0 59728 21600.00000 0 8908392.346 14569572.597 18962135.883 10 0 59728 22500.00000 0 6739166.777 13448552.258 20613216.203 10 0 59728 23400.00000 0 4327110.338 12425280.584 21864446.264 10 0 59728 24300.00000 0 1724433.635 11543717.257 22691553.418 10 0 59728 25200.00000 0 -1008619.941 10838281.031 23078477.729 10 0 59728 26100.00000 0 -3806027.876 10332422.679 23017682.492 10 0 59728 27000.00000 0 -6598485.455 10037675.546 22510301.713 10 0 59728 27900.00000 0 -9316043.660 9953223.188 21566121.673 10 0 59728 28800.00000 0 -11890779.727 10066002.104 20203396.681 10 0 59728 29700.00000 0 -14259390.630 10351335.306 18448502.059 10 0 59728 30600.00000 0 -16365602.703 10774070.363 16335430.290 10 0 59728 31500.00000 0 -18162297.791 11290174.441 13905139.295 10 0 59728 32400.00000 0 -19613267.937 11848719.536 11204764.551 10 0 59728 33300.00000 0 -20694525.687 12394174.578 8286709.524 10 0 59728 34200.00000 0 -21395115.370 12868907.812 5207631.536 10 0 59728 35100.00000 0 -21717391.498 13215793.686 2027342.374 10 0 59728 36000.00000 0 -21676752.710 13380813.649 -1192355.053 10 0 59728 36900.00000 0 -21300842.535 13315540.228 -4388871.082 10 0 59728 37800.00000 0 -20628250.897 12979398.328 -7500050.802 10 0 59728 38700.00000 0 -19706771.403 12341606.984 -10465388.297 10 0 59728 39600.00000 0 -18591288.361 11382718.171 -13227209.173 10 0 59728 40500.00000 0 -17341383.194 10095686.361 -15731797.684 10 0 59728 41400.00000 0 -16018761.742 8486422.274 -17930445.947 10 0 59728 42300.00000 0 -14684611.456 6573806.312 -19780404.337 10 0 59728 43200.00000 0 -13397000.249 4389159.848 -21245714.411 10 0 59728 44100.00000 0 -12208426.753 1975195.487 -22297908.182 10 0 59728 45000.00000 0 -11163625.141 -615510.593 -22916560.280 10 0 59728 45900.00000 0 -10297716.593 -3322461.227 -23089682.618 10 0 59728 46800.00000 0 -9634784.702 -6079515.373 -22813954.274 10 0 59728 47700.00000 0 -9186934.105 -8817405.406 -22094782.480 10 0 59728 48600.00000 0 -8953871.097 -11466390.341 -20946193.870 10 0 59728 49500.00000 0 -8923023.056 -13958935.146 -19390558.331 10 0 59728 50400.00000 0 -9070190.747 -16232305.103 -17458150.974 10 0 59728 51300.00000 0 -9360705.229 -18230967.886 -15186560.785 10 0 59728 52200.00000 0 -9751039.812 -19908703.974 -12619957.432 10 0 59728 53100.00000 0 -10190808.428 -21230338.092 -9808230.531 10 0 59728 54000.00000 0 -10625065.450 -22173020.318 -6806018.072 10 0 59728 54900.00000 0 -10996809.338 -22727004.256 -3671642.987 10 0 59728 55800.00000 0 -11249583.876 -22895890.677 -465978.711 10 0 59728 56700.00000 0 -11330066.674 -22696327.549 2748734.006 10 0 59728 57600.00000 0 -11190535.176 -22157180.068 5910095.847 10 0 59728 58500.00000 0 -10791105.643 -21318206.525 8956759.466 10 0 59728 59400.00000 0 -10101650.207 -20228296.520 11829618.186 10 0 59728 60300.00000 0 -9103310.703 -18943346.192 14472949.835 10 0 59728 61200.00000 0 -7789545.032 -17523860.188 16835493.570 10 0 59728 62100.00000 0 -6166661.387 -16032381.225 18871439.203 10 0 59728 63000.00000 0 -4253817.116 -14530855.022 20541310.367 10 0 59728 63900.00000 0 -2082481.320 -13078040.783 21812724.939 10 0 59728 64800.00000 0 304617.477 -11727075.176 22661018.706 10 0 59728 65700.00000 0 2855016.022 -10523291.142 23069720.799 10 0 59728 66600.00000 0 5508451.193 -9502382.076 23030872.158 10 0 59728 67500.00000 0 8199126.015 -8688987.484 22545181.144 10 0 59728 68400.00000 0 10858214.105 -8095758.627 21622013.323 10 0 59728 69300.00000 0 13416499.763 -7722942.795 20279215.315 10 0 59728 70200.00000 0 15807045.235 -7558503.293 18542775.656 10 0 59728 71100.00000 0 17967775.278 -7578769.912 16446328.416 10 0 59728 72000.00000 0 19843872.106 -7749592.597 14030508.423 10 0 59728 72900.00000 0 21389881.460 -8027949.825 11342169.672 10 0 59728 73800.00000 0 22571442.161 -8363944.014 8433481.262 10 0 59728 74700.00000 0 23366566.814 -8703099.815 5360917.884 10 0 59728 75600.00000 0 23766420.021 -8988868.044 2184164.063 10 0 59728 76500.00000 0 23775561.302 -9165229.011 -1035046.610 10 0 59728 77400.00000 0 23411642.397 -9179284.520 -4234134.411 10 0 59728 78300.00000 0 22704571.694 -8983727.944 -7350894.715 10 0 59728 79200.00000 0 21695181.008 -8539086.751 -10324713.150 10 0 59728 80100.00000 0 20433451.139 -7815641.409 -13097750.238 10 0 59728 81000.00000 0 18976371.279 -6794938.159 -15616071.755 10 0 59728 81900.00000 0 17385522.830 -5470830.430 -17830702.274 10 0 59728 82800.00000 0 15724489.812 -3850003.640 -19698580.844 10 0 59728 83700.00000 0 14056205.154 -1951960.016 -21183400.072 10 0 59728 84600.00000 0 12440344.626 191537.129 -22256312.265 10 0 59728 85500.00000 0 10930877.973 2537537.347 -22896489.034 10 0 59729 0.00000 0 9573879.916 5033450.989 -23091523.836 10 0 59729 900.00000 0 8405691.715 7619008.603 -22837670.032 10 0 59729 1800.00000 0 7451511.496 10228547.268 -22139910.020 10 0 59729 2700.00000 0 6724469.156 12793533.629 -21011854.818 10 0 59729 3600.00000 0 6225225.422 15245215.703 -19475475.904 10 0 59729 4500.00000 0 5942110.028 17517294.770 -17560674.864 10 0 59729 5400.00000 0 5851792.136 19548506.286 -15304699.252 10 0 59729 6300.00000 0 5920453.624 21285002.759 -12751415.970 10 0 59729 7200.00000 0 6105414.791 22682439.655 -9950456.371 10 0 59729 8100.00000 0 6357142.962 23707677.847 -6956249.687 10 0 59729 9000.00000 0 6621558.342 24340032.141 -3826963.620 10 0 59729 9900.00000 0 6842539.071 24572014.321 -623372.933 10 0 59729 10800.00000 0 6964518.967 24409540.417 2592321.811 10 0 59729 11700.00000 0 6935067.638 23871594.355 5757702.209 10 0 59729 12600.00000 0 6707343.512 22989362.875 8811342.905 10 0 59729 13500.00000 0 6242315.719 21804878.773 11694001.814 10 0 59729 14400.00000 0 5510660.624 20369230.000 14349766.586 10 0 59729 15300.00000 0 4494252.596 18740410.144 16727135.146 10 0 59729 16200.00000 0 3187185.698 16980900.645 18780009.734 10 0 59729 17100.00000 0 1596282.597 15155085.910 20468585.666 10 0 59729 18000.00000 0 -258931.479 13326609.296 21760118.142 10 0 59729 18900.00000 0 -2346789.731 11555779.973 22629552.940 10 0 59729 19800.00000 0 -4624557.578 9897138.325 23060009.381 10 0 59729 20700.00000 0 -7039975.711 8397280.784 23043106.680 10 0 59729 21600.00000 0 -9533209.678 7093034.041 22579127.681 10 0 59729 22500.00000 0 -12039126.303 6010053.990 21677016.801 10 0 59729 23400.00000 0 -14489803.598 5161907.229 20354211.991 10 0 59729 24300.00000 0 -16817171.041 4549672.840 18636313.456 10 0 59729 25200.00000 0 -18955671.431 4162080.629 16556594.801 10 0 59729 26100.00000 0 -20844834.149 3976179.686 14155365.259 10 0 59729 27000.00000 0 -22431653.071 3958508.948 11479194.483 10 0 59729 27900.00000 0 -23672670.051 4066720.321 8580014.095 10 0 59729 28800.00000 0 -24535676.761 4251585.792 5514112.893 10 0 59729 29700.00000 0 -25000963.400 4459303.530 2341044.839 10 0 59729 30600.00000 0 -25062061.546 4634005.115 -877529.080 10 0 59729 31500.00000 0 -24725949.569 4720357.214 -4079042.275 10 0 59729 32400.00000 0 -24012711.665 4666146.792 -7201243.479 10 0 59729 33300.00000 0 -22954664.634 4424739.382 -10183412.799 10 0 59729 34200.00000 0 -21594989.117 3957305.224 -12967548.407 10 0 59729 35100.00000 0 -19985922.981 3234717.811 -15499500.101 10 0 59729 36000.00000 0 -18186593.062 2239043.305 -17730027.092 10 0 59729 36900.00000 0 -16260576.747 964556.617 -19615758.909 10 0 59729 37800.00000 0 -14273296.090 -581759.875 -21120040.555 10 0 59729 38700.00000 0 -12289354.012 -2380257.232 -22213645.477 10 0 59729 39600.00000 0 -10369924.374 -4399199.732 -22875342.595 10 0 59729 40500.00000 0 -8570305.059 -6595860.222 -23092306.723 10 0 59729 41400.00000 0 -6937736.097 -8918086.061 -22860364.761 10 0 59729 42300.00000 0 -5509573.510 -11306270.829 -22184073.253 10 0 59729 43200.00000 0 -4311894.371 -13695650.117 -21076626.131 10 0 59729 44100.00000 0 -3358590.293 -16018826.148 -19559594.686 10 0 59729 45000.00000 0 -2650986.124 -18208416.261 -17662504.967 10 0 59729 45900.00000 0 -2177998.360 -20199715.206 -15422260.909 10 0 59729 46800.00000 0 -1916825.256 -21933260.503 -12882424.366 10 0 59729 47700.00000 0 -1834138.215 -23357194.053 -10092366.118 10 0 59729 48600.00000 0 -1887723.033 -24429321.698 -7106304.330 10 0 59729 49500.00000 0 -2028500.615 -25118784.990 -3982249.235 10 0 59729 50400.00000 0 -2202840.898 -25407275.645 -780874.748 10 0 59729 51300.00000 0 -2355071.413 -25289742.303 2435660.871 10 0 59729 52200.00000 0 -2430073.732 -24774560.552 5604922.185 10 0 59729 53100.00000 0 -2375857.547 -23883159.621 8665407.846 10 0 59729 54000.00000 0 -2146003.109 -22649121.962 11557742.336 10 0 59729 54900.00000 0 -1701868.488 -21116793.900 14225825.049 10 0 59729 55800.00000 0 -1014468.112 -19339465.908 16617914.522 10 0 59729 56700.00000 0 -65943.018 -17377198.867 18687627.128 10 0 59729 57600.00000 0 1149439.677 -15294387.122 20394831.386 10 0 59729 58500.00000 0 2624800.708 -13157159.941 21706421.110 10 0 59729 59400.00000 0 4340697.304 -11030729.327 22596953.081 10 0 59729 60300.00000 0 6265705.627 -8976794.085 23049137.531 10 0 59729 61200.00000 0 8357513.872 -7051107.538 23054172.395 10 0 59729 62100.00000 0 10564481.828 -5301309.304 22611915.152 10 0 59729 63000.00000 0 12827603.352 -3765110.484 21730888.979 10 0 59729 63900.00000 0 15082791.331 -2468907.060 20428122.822 10 0 59729 64800.00000 0 17263391.283 -1426878.451 18728828.013 10 0 59729 65700.00000 0 19302819.975 -640608.226 16665916.941 10 0 59729 66600.00000 0 21137219.801 -99242.131 14279372.263 10 0 59729 67500.00000 0 22708018.718 219823.569 11615478.035 10 0 59729 68400.00000 0 23964288.926 349752.742 8725926.869 10 0 59729 69300.00000 0 24864805.498 332629.511 5666819.851 10 0 59729 70200.00000 0 25379718.336 217437.386 2497578.246 10 0 59729 71100.00000 0 25491766.850 57743.235 -720211.955 10 0 59729 72000.00000 0 25196985.670 -90815.424 -3923999.914 10 0 59729 72900.00000 0 24504871.170 -173132.690 -7051490.483 10 0 59729 73800.00000 0 23438001.292 -137215.008 -10041861.046 10 0 59729 74700.00000 0 22031124.252 63369.948 -12836950.174 10 0 59729 75600.00000 0 20329754.293 467281.045 -15382394.324 10 0 59729 76500.00000 0 18388333.407 1103522.897 -17628689.811 10 0 59729 77400.00000 0 16268036.339 1989977.143 -19532158.921 10 0 59729 78300.00000 0 14034311.082 3132408.960 -21055801.135 10 0 59729 79200.00000 0 11754258.056 4523991.793 -22170012.915 10 0 59729 80100.00000 0 9493957.745 6145371.236 -22853162.134 10 0 59729 81000.00000 0 7315858.442 7965266.348 -23092006.348 10 0 59729 81900.00000 0 5276332.876 9941583.976 -22881947.124 10 0 59729 82800.00000 0 3423505.258 12023000.073 -22227115.852 10 0 59729 83700.00000 0 1795438.637 14150942.461 -21140289.735 10 0 59729 84600.00000 0 418757.125 16261892.656 -19642639.812 10 0 59729 85500.00000 0 -692240.606 18289910.902 -17763316.100 10 0 59730 0.00000 0 -1535940.951 20169279.065 -15538878.190 10 0 59730 900.00000 0 -2123234.991 21837152.217 -13012581.113 10 0 59730 1800.00000 0 -2476806.159 23236105.636 -10233533.462 10 0 59730 2700.00000 0 -2629918.926 24316474.316 -7255740.148 10 0 59730 3600.00000 0 -2624759.776 25038384.608 -4137051.382 10 0 59730 4500.00000 0 -2510402.088 25373394.126 -938037.378 10 0 59730 5400.00000 0 -2340481.880 25305671.264 2279188.988 10 0 59730 6300.00000 0 -2170683.452 24832665.147 5452178.495 10 0 59730 7200.00000 0 -2056141.844 23965238.206 8519357.125 10 0 59730 8100.00000 0 -2048872.455 22727256.122 11421219.240 10 0 59730 9000.00000 0 -2195336.779 21154652.560 14101479.220 10 0 59730 9900.00000 0 -2534247.356 19294008.039 16508159.308 10 0 59730 10800.00000 0 -3094704.810 17200702.394 18594592.902 10 0 59730 11700.00000 0 -3894745.819 14936717.890 20320324.374 10 0 59730 12600.00000 0 -4940363.533 12568184.365 21651888.489 10 0 59730 13500.00000 0 -6225042.223 10162768.215 22563455.021 10 0 59730 14400.00000 0 -7729826.545 7787013.212 23037326.693 10 0 59730 15300.00000 0 -9423923.500 5503743.016 23064281.259 10 0 59730 16200.00000 0 -11265813.158 3369632.427 22643751.416 10 0 59730 17100.00000 0 -13204823.088 1433047.367 21783839.101 10 0 59730 18000.00000 0 -15183102.072 -267757.481 20501163.660 10 0 59730 18900.00000 0 -17137912.046 -1706009.316 18820546.349 10 0 59730 19800.00000 0 -19004143.774 -2867299.867 16774536.527 10 0 59730 20700.00000 0 -20716951.999 -3749943.878 14402787.943 10 0 59730 21600.00000 0 -22214400.609 -4364799.124 11751296.313 10 0 59730 22500.00000 0 -23440007.361 -4734556.055 8871512.139 10 0 59730 23400.00000 0 -24345081.470 -4892527.388 5819345.434 10 0 59730 24300.00000 0 -24890755.669 -4880989.117 2654081.259 10 0 59730 25200.00000 0 -25049626.784 -4749143.469 -562772.956 10 0 59730 26100.00000 0 -24806935.102 -4550790.434 -3768685.678 10 0 59730 27000.00000 0 -24161232.103 -4341807.102 -6901321.340 10 0 59730 27900.00000 0 -23124507.663 -4177542.335 -9899757.941 10 0 59730 28800.00000 0 -21721770.684 -4110238.009 -12705677.623 10 0 59730 29700.00000 0 -19990100.243 -4186587.034 -15264506.412 10 0 59730 30600.00000 0 -17977206.746 -4445532.551 -17526480.331 10 0 59730 31500.00000 0 -15739563.306 -4916402.366 -19447616.596 10 0 59730 32400.00000 0 -13340185.598 -5617458.484 -20990570.836 10 0 59730 33300.00000 0 -10846153.074 -6554923.802 -22125363.608 10 0 59730 34200.00000 0 -8325975.231 -7722527.855 -22829962.198 10 0 59730 35100.00000 0 -5846912.737 -9101591.458 -23090706.735 10 0 59730 36000.00000 0 -3472364.916 -10661647.369 -22902572.678 10 0 59730 36900.00000 0 -1259432.071 -12361571.509 -22269264.970 10 0 59730 37800.00000 0 743246.459 -14151177.779 -21203142.334 10 0 59730 38700.00000 0 2497289.388 -15973210.129 -19724973.457 10 0 59730 39600.00000 0 3975931.876 -17765648.715 -17863529.941 10 0 59730 40500.00000 0 5164889.922 -19464233.857 -15655024.041 10 0 59730 41400.00000 0 6062696.214 -21005102.310 -13142402.071 10 0 59730 42300.00000 0 6680494.897 -22327425.440 -10374507.313 10 0 59730 43200.00000 0 7041305.606 -23375938.876 -7405128.664 10 0 59730 44100.00000 0 7178789.241 -24103257.586 -4291953.596 10 0 59730 45000.00000 0 7135568.879 -24471879.261 -1095445.988 10 0 59730 45900.00000 0 6961177.925 -24455791.993 2122329.200 10 0 59730 46800.00000 0 6709723.149 -24041618.813 5298911.348 10 0 59730 47700.00000 0 6437362.141 -23229251.102 8372656.001 10 0 59730 48600.00000 0 6199702.385 -22031944.367 11283929.459 10 0 59730 49500.00000 0 6049232.266 -20475872.368 13976262.943 10 0 59730 50400.00000 0 6032892.726 -18599158.228 16397444.034 10 0 59730 51300.00000 0 6189892.226 -16450422.902 18500524.533 10 0 59730 52200.00000 0 6549857.257 -14086911.324 20244725.754 10 0 59730 53100.00000 0 7131396.458 -11572273.999 21596224.198 10 0 59730 54000.00000 0 7941139.037 -8974095.801 22528803.087 10 0 59730 54900.00000 0 8973288.371 -6361274.019 23024357.775 10 0 59730 55800.00000 0 10209710.202 -3801353.784 23073245.669 10 0 59730 56700.00000 0 11620552.641 -1357930.534 22674474.244 10 0 59730 57600.00000 0 13165373.149 911773.662 21835723.535 10 0 59730 58500.00000 0 14794726.469 2959060.201 20573202.433 10 0 59730 59400.00000 0 16452148.371 4745542.117 18911341.100 10 0 59730 60300.00000 0 18076453.332 6244496.828 16882324.732 10 0 59730 61200.00000 0 19604250.931 7441727.807 14525476.906 10 0 59730 62100.00000 0 20972576.285 8335899.936 11886503.574 10 0 59730 63000.00000 0 22121524.620 8938335.136 9016611.546 10 0 59730 63900.00000 0 22996779.430 9272277.359 5971518.022 10 0 59730 64800.00000 0 23551927.732 9371658.392 2810369.952 10 0 59730 65700.00000 0 23750464.437 9279417.051 -405405.886 10 0 59730 66600.00000 0 23567400.672 9045443.239 -3613299.462 10 0 59730 67500.00000 0 22990407.369 8724234.455 -6750937.089 10 0 59730 68400.00000 0 22020444.953 8372364.665 -9757299.680 10 0 59730 69300.00000 0 20671851.665 8045873.465 -12573915.199 10 0 59730 70200.00000 0 18971885.933 7797686.976 -15146001.394 10 0 59730 71100.00000 0 16959741.308 7675180.505 -17423536.004 10 0 59730 72000.00000 0 14685074.811 7717986.957 -19362233.060 10 0 59730 72900.00000 0 12206110.009 7956144.418 -20924406.081 10 0 59730 73800.00000 0 9587393.893 8408661.861 -22079701.335 10 0 59730 74700.00000 0 6897301.213 9082564.087 -22805686.996 10 0 59730 75600.00000 0 4205390.154 9972456.654 -23088287.070 10 0 59730 76500.00000 0 1579719.290 11060629.565 -22922052.007 10 0 59730 77400.00000 0 -915762.777 12317695.697 -22310261.101 10 0 59730 78300.00000 0 -3223647.044 13703737.465 -21264855.062 10 0 59730 79200.00000 0 -5295212.703 15169913.847 -19806200.283 10 0 59730 80100.00000 0 -7092206.162 16660460.492 -17962689.596 10 0 59730 81000.00000 0 -8588177.625 18114999.138 -15770187.343 10 0 59730 81900.00000 0 -9769320.877 19471059.532 -13271329.528 10 0 59730 82800.00000 0 -10634782.678 20666707.975 -10514692.728 10 0 59730 83700.00000 0 -11196430.450 21643172.134 -7553847.916 10 0 59730 84600.00000 0 -11478089.674 22347351.769 -4446317.612 10 0 59730 85500.00000 0 -11514284.520 22734109.797 -1252456.897 10 0 59731 0.00000 0 -11348536.242 22768247.275 1965719.566 10 0 59731 900.00000 0 -11031292.120 22426079.135 5145743.182 10 0 59731 1800.00000 0 -10617573.609 21696544.378 8225901.733 10 0 59731 2700.00000 0 -10164443.403 20581803.979 11146436.499 10 0 59731 3600.00000 0 -9728399.055 19097301.131 13850698.608 10 0 59731 4500.00000 0 -9362803.378 17271281.099 16286244.005 10 0 59731 5400.00000 0 -9115460.147 15143790.465 18405845.832 10 0 59731 6300.00000 0 -9026437.283 12765197.021 20168405.119 10 0 59731 7200.00000 0 -9126229.152 10194291.541 21539742.650 10 0 59731 8100.00000 0 -9434335.263 7496049.727 22493257.360 10 0 59731 9000.00000 0 -9958315.271 4739146.471 23010439.114 10 0 59731 9900.00000 0 -10693360.186 1993324.841 23081226.431 10 0 59731 10800.00000 0 -11622398.344 -673272.141 22704202.524 10 0 59731 11700.00000 0 -12716732.404 -3196697.296 21886625.928 10 0 59731 12600.00000 0 -13937181.539 -5519615.922 20644294.897 10 0 59731 13500.00000 0 -15235682.003 -7593443.995 19001247.726 10 0 59731 14400.00000 0 -16557279.966 -9380119.966 16989304.084 10 0 59731 15300.00000 0 -17842433.995 -10853437.160 14647455.456 10 0 59731 16200.00000 0 -19029531.266 -11999881.933 12021115.629 10 0 59731 17100.00000 0 -20057512.345 -12818943.174 9161244.923 10 0 59731 18000.00000 0 -20868494.276 -13322880.678 6123364.595 10 0 59731 18900.00000 0 -21410281.426 -13535962.631 2966480.118 10 0 59731 19800.00000 0 -21638657.808 -13493204.813 -248065.877 10 0 59731 20700.00000 0 -21519363.459 -13238665.155 -3457788.454 10 0 59731 21600.00000 0 -21029670.548 -12823366.286 -6600279.398 10 0 59731 22500.00000 0 -20159491.622 -12302934.543 -9614426.105 10 0 59731 23400.00000 0 -18911972.127 -11735056.020 -12441605.812 10 0 59731 24300.00000 0 -17303541.159 -11176858.098 -15026831.266 10 0 59731 25200.00000 0 -15363417.268 -10682327.977 -17319824.929 10 0 59731 26100.00000 0 -13132589.285 -10299878.126 -19276000.261 10 0 59731 27000.00000 0 -10662314.219 -10070162.191 -20857330.800 10 0 59731 27900.00000 0 -8012194.548 -10024234.103 -22033090.069 10 0 59731 28800.00000 0 -5247914.901 -10182128.472 -22780448.022 10 0 59731 29700.00000 0 -2438732.226 -10551922.369 -23084912.765 10 0 59731 30600.00000 0 345176.410 -11129318.180 -22940609.308 10 0 59731 31500.00000 0 3035398.256 -11897765.158 -22350390.283 10 0 59731 32400.00000 0 5567890.453 -12829114.597 -21325776.852 10 0 59731 33300.00000 0 7885399.068 -13884781.060 -19886731.169 10 0 59731 34200.00000 0 9939591.672 -15017360.805 -18061264.995 10 0 59731 35100.00000 0 11692815.781 -16172639.326 -15884892.178 10 0 59731 36000.00000 0 13119411.062 -17291903.530 -13399935.596 10 0 59731 36900.00000 0 14206521.848 -18314461.209 -10654702.132 10 0 59731 37800.00000 0 14954377.522 -19180261.678 -7702541.699 10 0 59731 38700.00000 0 15376030.572 -19832507.151 -4600808.664 10 0 59731 39600.00000 0 15496564.799 -20220144.735 -1409746.078 10 0 59731 40500.00000 0 15351808.480 -20300133.913 1808685.429 10 0 59731 41400.00000 0 14986607.920 -20039393.845 4992011.155 10 0 59731 42300.00000 0 14452735.259 -19416348.285 8078454.504 10 0 59731 43200.00000 0 13806519.615 -18422002.850 11008134.257 10 0 59731 44100.00000 0 13106302.073 -17060509.033 13724223.631 10 0 59731 45000.00000 0 12409822.164 -15349190.903 16174048.736 10 0 59731 45900.00000 0 11771646.154 -13318032.833 18310105.454 10 0 59731 46800.00000 0 11240745.339 -11008649.035 20090975.515 10 0 59731 47700.00000 0 10858326.121 -8472777.179 21482124.558 10 0 59731 48600.00000 0 10656002.848 -5770357.977 22456567.382 10 0 59731 49500.00000 0 10654389.998 -2967279.555 22995388.146 10 0 59731 50400.00000 0 10862172.707 -132879.314 23088105.894 10 0 59731 51300.00000 0 11275694.743 2662694.224 22732878.677 10 0 59731 52200.00000 0 11879081.477 5351151.337 21936542.365 10 0 59731 53100.00000 0 12644893.198 7868653.086 20714483.186 10 0 59731 54000.00000 0 13535281.995 10158218.859 19090346.011 10 0 59731 54900.00000 0 14503604.443 12171850.440 17095583.292 10 0 59731 55800.00000 0 15496423.093 13872284.940 14768852.640 10 0 59731 56700.00000 0 16455813.350 15234304.268 12155273.802 10 0 59731 57600.00000 0 17321879.152 16245546.998 9305558.650 10 0 59731 58500.00000 0 18035371.749 16906789.062 6275030.473 10 0 59731 59400.00000 0 18540301.114 17231681.948 3122551.177 10 0 59731 60300.00000 0 18786429.402 17245959.770 -90622.890 10 0 59731 61200.00000 0 18731540.521 16986149.024 -3302034.042 10 0 59731 62100.00000 0 18343389.002 16497835.937 -6449241.658 10 0 59731 63000.00000 0 17601244.740 15833565.120 -9471041.646 10 0 59731 63900.00000 0 16496967.176 15050458.934 -12308662.426 10 0 59731 64800.00000 0 15035562.357 14207658.883 -14906913.497 10 0 59731 65700.00000 0 13235198.172 13363697.850 -17215263.627 10 0 59731 66600.00000 0 11126676.035 12573914.838 -19188827.142 10 0 59731 67500.00000 0 8752380.260 11888021.945 -20789238.896 10 0 59731 68400.00000 0 6164748.261 11347926.628 -21985400.844 10 0 59731 69300.00000 0 3424325.000 10985901.348 -22754085.786 10 0 59731 70200.00000 0 597482.312 10823177.768 -23080386.857 10 0 59731 71100.00000 0 -2246102.335 10869024.612 -22958004.365 10 0 59731 72000.00000 0 -5036103.040 11120347.801 -22389364.778 10 0 59731 72900.00000 0 -7704228.621 11561829.370 -21385569.891 10 0 59731 73800.00000 0 -10186820.749 12166598.980 -19966177.432 10 0 59731 74700.00000 0 -12427259.576 12897409.423 -18158817.528 10 0 59731 75600.00000 0 -14378077.672 13708266.307 -15998652.594 10 0 59731 76500.00000 0 -16002695.194 14546442.982 -13527691.115 10 0 59731 77400.00000 0 -17276704.979 15354795.569 -10793968.729 10 0 59731 78300.00000 0 -18188655.217 16074280.248 -7850612.513 10 0 59731 79200.00000 0 -18740298.282 16646566.426 -4754806.725 10 0 59731 80100.00000 0 -18946296.682 17016635.335 -1566680.286 10 0 59731 81000.00000 0 -18833399.867 17135254.167 1651862.161 10 0 59731 81900.00000 0 -18439127.787 16961221.152 4838342.744 10 0 59731 82800.00000 0 -17810017.741 16463286.613 7930922.696 10 0 59731 83700.00000 0 -16999509.267 15621668.722 10869600.901 10 0 59731 84600.00000 0 -16065556.874 14429099.765 13597375.361 10 0 59731 85500.00000 0 -15068071.566 12891358.440 16061345.089 99